Regional Weather Roundup
Issued by NWS

Home | Current Version | Previous Version | Text Only | Print | Product List | Glossary Off
Versions: 1 2 3 4 5 6 7 8 9 10 11 12 13 14 15 16 17 18 19 20 21 22 23 24 25 26 27 28 29 30 31 32 33 34 35 36 37 38 39 40 41 42 43 44 45 46 47 48 49 50

000
ASUS43 KBIS 260610
RWRND

NORTH DAKOTA REGIONAL WEATHER ROUNDUP
NATIONAL WEATHER SERVICE BISMARCK ND
100 AM CDT SUN MAR 26 2017

NOTE: "FAIR" INDICATES FEW OR NO CLOUDS BELOW 12,000 FEET WITH NO
SIGNIFICANT WEATHER AND/OR OBSTRUCTIONS TO VISIBILITY.


NDZ001>003-009>011-017-260700-
NORTHWEST NORTH DAKOTA

CITY           SKY/WX    TMP DP  RH WIND       PRES   REMARKS
WILLISTON      FAIR      42  33  70 N5        29.88S
6HR MIN TEMP:  42; 6HR MAX TEMP:  58;

MINOT          CLOUDY    45  35  68 S6        29.88S
MINOT AFB      CLOUDY    39  35  85 NW9       29.88S
$$

NDZ018>021-031>035-040>046-260700-
SOUTHWEST NORTH DAKOTA

CITY           SKY/WX    TMP DP  RH WIND       PRES   REMARKS
BISMARCK       CLOUDY    42  34  73 SE5       29.93S
6HR MIN TEMP:  42; 6HR MAX TEMP:  53;

DICKINSON      CLOUDY    44  30  57 W5        29.88S
GARRISON         N/A     39  32  76 SE5       29.89F
6HR MIN TEMP:  38; 6HR MAX TEMP:  47;

HETTINGER ARPT CLOUDY    45  32  60 NE3       29.90S
$$

NDZ004>008-012>016-024-026-027-054-260700-
NORTHEAST NORTH DAKOTA

CITY           SKY/WX    TMP DP  RH WIND       PRES   REMARKS
GRAND FORKS    PTCLDY    32  31  96 S5        30.00S
GRND FRKS AFB  CLOUDY    32  31  97 S7        30.00S
DEVILS LAKE    CLOUDY    34  32  92 S9        29.95F
$$

NDZ022-023-025-028>030-036>039-047>053-260700-
SOUTHEAST NORTH DAKOTA

CITY           SKY/WX    TMP DP  RH WIND       PRES   REMARKS
FARGO          CLOUDY    34  33  96 S8        30.00F
6HR MIN TEMP:  30; 6HR MAX TEMP:  39;

JAMESTOWN      CLOUDY    32  31  96 S13       29.96S FOG
$$





USA.gov is the U.S. government's official web portal to all federal, state and local government web resources and services.